22-02-2022, 00:00:04,    266,    1.9,    3.8,   0.00,   0.00, 1017.8,   76.1, -999.0
22-02-2022, 00:00:14,    244,    0.9,    3.8,   0.00,   0.00, 1017.8,   75.9, -999.0
22-02-2022, 00:00:24,    243,    0.1,    3.8,   0.00,   0.00, 1017.7,   75.8, -999.0
22-02-2022, 00:00:34,    241,    0.0,    3.7,   0.00,   0.00, 1017.6,   75.7, -999.0
22-02-2022, 00:00:43,    241,    0.0,    3.7,   0.00,   0.00, 1017.6,   75.6, -999.0
22-02-2022, 00:00:54,    241,    0.0,    3.7,   0.00,   0.00, 1017.5,   75.5, -999.0
22-02-2022, 00:01:04,    241,    0.0,    3.8,   0.00,   0.00, 1017.6,   75.4, -999.0
22-02-2022, 00:01:13,    241,    0.0,    3.8,   0.00,   0.00, 1017.5,   75.6, -999.0
22-02-2022, 00:01:23,    293,    0.1,    3.8,   0.00,   0.00, 1017.5,   75.7, -999.0
22-02-2022, 00:01:34,    265,    0.1,    3.8,   0.00,   0.00, 1017.6,   75.7, -999.0
22-02-2022, 00:01:43,    265,    0.0,    3.8,   0.00,   0.00, 1017.5,   75.4, -999.0
22-02-2022, 00:01:53,    230,    0.6,    3.8,   0.00,   0.00, 1017.6,   75.7, -999.0
22-02-2022, 00:02:03,    181,    1.1,    3.8,   0.00,   0.00, 1017.7,   75.5, -999.0
22-02-2022, 00:02:13,    214,    0.2,    3.7,   0.00,   0.00, 1017.6,   75.5, -999.0
22-02-2022, 00:02:23,    215,    0.1,    3.7,   0.00,   0.00, 1017.6,   75.6, -999.0
22-02-2022, 00:02:33,    304,    0.0,    3.8,   0.00,   0.00, 1017.6,   75.3, -999.0
22-02-2022, 00:02:43,    303,    0.1,    3.8,   0.00,   0.00, 1017.6,   75.5, -999.0
22-02-2022, 00:02:53,    303,    0.0,    3.8,   0.00,   0.00, 1017.5,   75.2, -999.0
22-02-2022, 00:03:03,    286,    0.2,    3.8,   0.00,   0.00, 1017.6,   75.4, -999.0
22-02-2022, 00:03:13,    286,    0.0,    3.7,   0.00,   0.00, 1017.5,   75.1, -999.0
22-02-2022, 00:03:23,    268,    0.2,    3.9,   0.00,   0.00, 1017.6,   75.5, -999.0
22-02-2022, 00:03:33,    268,    0.0,    3.7,   0.00,   0.00, 1017.5,   75.0, -999.0
22-02-2022, 00:03:43,    267,    0.4,    3.8,   0.00,   0.00, 1017.6,   75.4, -999.0
22-02-2022, 00:03:53,    262,    0.8,    3.9,   0.00,   0.00, 1017.6,   75.4, -999.0
22-02-2022, 00:04:03,    261,    0.5,    3.8,   0.00,   0.00, 1017.7,   75.6, -999.0
22-02-2022, 00:04:13,    237,    0.7,    3.9,   0.00,   0.00, 1017.6,   75.4, -999.0
22-02-2022, 00:04:22,    225,    0.9,    3.8,   0.00,   0.00, 1017.6,   75.4, -999.0
22-02-2022, 00:04:33,    233,    1.0,    3.8,   0.00,   0.00, 1017.7,   75.3, -999.0
22-02-2022, 00:04:42,    233,    0.3,    3.8,   0.00,   0.00, 1017.6,   75.3, -999.0
22-02-2022, 00:04:52,    220,    0.8,    3.8,   0.00,   0.00, 1017.6,   75.2, -999.0
22-02-2022, 00:05:02,    220,    0.1,    3.8,   0.00,   0.00, 1017.5,   75.1, -999.0
22-02-2022, 00:05:12,    220,    0.0,    3.8,   0.00,   0.00, 1017.5,   74.9, -999.0
22-02-2022, 00:05:22,    220,    0.0,    3.8,   0.00,   0.00, 1017.5,   74.9, -999.0
22-02-2022, 00:05:32,    221,    0.0,    3.8,   0.00,   0.00, 1017.5,   74.9, -999.0
22-02-2022, 00:05:42,    221,    0.3,    3.9,   0.00,   0.00, 1017.6,   75.4, -999.0
22-02-2022, 00:05:52,    221,    0.0,    3.8,   0.00,   0.00, 1017.5,   74.8, -999.0
22-02-2022, 00:06:02,    222,    0.0,    3.8,   0.00,   0.00, 1017.5,   74.8, -999.0
22-02-2022, 00:06:12,    256,    1.0,    3.8,   0.00,   0.00, 1017.6,   75.2, -999.0
22-02-2022, 00:06:22,    247,    0.7,    3.9,   0.00,   0.00, 1017.6,   75.1, -999.0
22-02-2022, 00:06:32,    239,    0.5,    3.8,   0.00,   0.00, 1017.5,   75.2, -999.0
22-02-2022, 00:06:42,    240,    0.2,    3.8,   0.00,   0.00, 1017.5,   75.1, -999.0
22-02-2022, 00:06:52,    244,    0.0,    3.8,   0.00,   0.00, 1017.5,   74.7, -999.0
22-02-2022, 00:07:02,    265,    1.7,    3.8,   0.00,   0.00, 1017.6,   75.0, -999.0
22-02-2022, 00:07:12,    262,    0.6,    3.8,   0.00,   0.00, 1017.6,   74.8, -999.0
22-02-2022, 00:07:21,    262,    0.1,    3.8,   0.00,   0.00, 1017.5,   74.7, -999.0
22-02-2022, 00:07:31,    262,    0.0,    3.8,   0.00,   0.00, 1017.4,   74.6, -999.0
22-02-2022, 00:07:42,    262,    0.0,    3.8,   0.00,   0.00, 1017.4,   74.7, -999.0
22-02-2022, 00:07:51,    262,    0.1,    3.8,   0.00,   0.00, 1017.5,   74.8, -999.0
22-02-2022, 00:08:01,    248,    0.4,    3.9,   0.00,   0.00, 1017.5,   74.8, -999.0
22-02-2022, 00:08:11,    249,    0.6,    3.9,   0.00,   0.00, 1017.6,   74.9, -999.0
22-02-2022, 00:08:21,    247,    0.0,    3.8,   0.00,   0.00, 1017.4,   74.8, -999.0
22-02-2022, 00:08:31,    247,    0.0,    3.6,   0.00,   0.00, 1017.4,   74.6, -999.0
22-02-2022, 00:08:41,    247,    0.0,    3.8,   0.00,   0.00, 1017.4,   74.7, -999.0
22-02-2022, 00:08:51,    247,    0.0,    3.7,   0.00,   0.00, 1017.4,   74.6, -999.0
22-02-2022, 00:09:01,    242,    0.1,    3.8,   0.00,   0.00, 1017.4,   74.6, -999.0
22-02-2022, 00:09:11,    241,    0.0,    3.8,   0.00,   0.00, 1017.4,   74.5, -999.0
22-02-2022, 00:09:21,    243,    0.0,    3.8,   0.00,   0.00, 1017.4,   74.6, -999.0
22-02-2022, 00:09:31,    242,    0.3,    3.8,   0.00,   0.00, 1017.4,   74.8, -999.0
22-02-2022, 00:09:41,    240,    0.0,    3.7,   0.00,   0.00, 1017.4,   74.5, -999.0
22-02-2022, 00:09:51,    202,    0.2,    3.8,   0.00,   0.00, 1017.4,   75.0, -999.0
22-02-2022, 00:10:00,    202,    0.0,    3.8,   0.00,   0.00, 1017.3,   74.6, -999.0
22-02-2022, 00:10:11,    201,    0.0,    3.8,   0.00,   0.00, 1017.3,   74.6, -999.0
22-02-2022, 00:10:21,    203,    0.0,    3.8,   0.00,   0.00, 1017.3,   74.5, -999.0
22-02-2022, 00:10:30,    203,    0.0,    3.8,   0.00,   0.00, 1017.4,   74.7, -999.0
22-02-2022, 00:10:41,    214,    0.0,    3.8,   0.00,   0.00, 1017.4,   74.7, -999.0
22-02-2022, 00:10:51,    214,    0.0,    3.7,   0.00,   0.00, 1017.3,   74.5, -999.0
22-02-2022, 00:11:00,    209,    0.0,    3.8,   0.00,   0.00, 1017.3,   74.5, -999.0
22-02-2022, 00:11:10,    209,    0.0,    3.8,   0.00,   0.00, 1017.3,   74.6, -999.0
22-02-2022, 00:11:20,    208,    0.0,    3.8,   0.00,   0.00, 1017.3,   74.4, -999.0
22-02-2022, 00:11:30,    209,    0.0,    3.7,   0.00,   0.00, 1017.3,   74.6, -999.0
22-02-2022, 00:11:40,    254,    0.0,    3.7,   0.00,   0.00, 1017.3,   74.5, -999.0
22-02-2022, 00:11:50,    241,    0.4,    3.8,   0.00,   0.00, 1017.4,   74.7, -999.0
22-02-2022, 00:12:00,    235,    0.0,    3.8,   0.00,   0.00, 1017.3,   74.5, -999.0
22-02-2022, 00:12:10,    234,    0.0,    3.8,   0.00,   0.00, 1017.3,   74.5, -999.0
22-02-2022, 00:12:20,    237,    0.1,    3.8,   0.00,   0.00, 1017.3,   74.7, -999.0
22-02-2022, 00:12:30,    237,    0.0,    3.8,   0.00,   0.00, 1017.3,   74.6, -999.0
22-02-2022, 00:12:40,    237,    0.0,    3.8,   0.00,   0.00, 1017.3,   74.6, -999.0
22-02-2022, 00:12:50,    237,    0.0,    3.8,   0.00,   0.00, 1017.3,   74.6, -999.0
22-02-2022, 00:13:00,    237,    0.0,    3.8,   0.00,   0.00, 1017.3,   74.4, -999.0
22-02-2022, 00:13:10,    202,    0.1,    3.8,   0.00,   0.00, 1017.3,   74.5, -999.0
22-02-2022, 00:13:20,    201,    0.0,    3.8,   0.00,   0.00, 1017.3,   74.5, -999.0
22-02-2022, 00:13:30,    202,    0.0,    3.8,   0.00,   0.00, 1017.3,   74.5, -999.0
22-02-2022, 00:13:39,    201,    0.0,    3.8,   0.00,   0.00, 1017.3,   74.5, -999.0
22-02-2022, 00:13:50,    201,    0.0,    3.8,   0.00,   0.00, 1017.3,   74.5, -999.0
22-02-2022, 00:13:59,    201,    0.0,    3.8,   0.00,   0.00, 1017.3,   74.4, -999.0
22-02-2022, 00:14:09,    201,    0.0,    3.9,   0.00,   0.00, 1017.3,   74.4, -999.0
22-02-2022, 00:14:19,    200,    0.0,    3.7,   0.00,   0.00, 1017.3,   74.4, -999.0
22-02-2022, 00:14:29,    196,    0.4,    3.9,   0.00,   0.00, 1017.4,   74.7, -999.0
22-02-2022, 00:14:39,    217,    0.7,    3.9,   0.00,   0.00, 1017.4,   74.7, -999.0
22-02-2022, 00:14:49,    218,    0.3,    3.9,   0.00,   0.00, 1017.4,   74.7, -999.0
22-02-2022, 00:14:59,    217,    0.0,    3.8,   0.00,   0.00, 1017.3,   74.5, -999.0
22-02-2022, 00:15:09,    217,    0.0,    3.8,   0.00,   0.00, 1017.3,   74.4, -999.0
22-02-2022, 00:15:19,    250,    0.1,    3.8,   0.00,   0.00, 1017.3,   74.5, -999.0
22-02-2022, 00:15:29,    250,    0.0,    3.9,   0.00,   0.00, 1017.3,   74.2, -999.0
22-02-2022, 00:15:39,    242,    0.1,    3.9,   0.00,   0.00, 1017.4,   74.3, -999.0
22-02-2022, 00:15:49,    233,    1.1,    4.0,   0.00,   0.00, 1017.4,   74.7, -999.0
22-02-2022, 00:15:59,    238,    1.0,    4.0,   0.00,   0.00, 1017.4,   74.5, -999.0
22-02-2022, 00:16:09,    244,    0.1,    4.0,   0.00,   0.00, 1017.4,   74.7, -999.0
22-02-2022, 00:16:19,    244,    0.2,    4.0,   0.00,   0.00, 1017.4,   74.4, -999.0
22-02-2022, 00:16:29,    244,    0.0,    3.8,   0.00,   0.00, 1017.3,   74.1, -999.0
22-02-2022, 00:16:38,    244,    0.0,    3.9,   0.00,   0.00, 1017.3,   74.2, -999.0
22-02-2022, 00:16:48,    244,    0.0,    3.8,   0.00,   0.00, 1017.3,   74.1, -999.0
22-02-2022, 00:16:59,    244,    0.0,    3.9,   0.00,   0.00, 1017.3,   74.2, -999.0
22-02-2022, 00:17:08,    245,    0.0,    3.8,   0.00,   0.00, 1017.3,   74.2, -999.0
22-02-2022, 00:17:18,    245,    0.0,    3.9,   0.00,   0.00, 1017.3,   74.1, -999.0
22-02-2022, 00:17:29,    244,    0.0,    3.8,   0.00,   0.00, 1017.3,   74.1, -999.0
22-02-2022, 00:17:38,    246,    0.2,    3.9,   0.00,   0.00, 1017.3,   74.3, -999.0
22-02-2022, 00:17:48,    245,    0.2,    3.9,   0.00,   0.00, 1017.4,   74.3, -999.0
22-02-2022, 00:17:58,    245,    0.0,    3.9,   0.00,   0.00, 1017.3,   74.1, -999.0
22-02-2022, 00:18:08,    245,    0.0,    3.8,   0.00,   0.00, 1017.3,   74.0, -999.0
22-02-2022, 00:18:18,    245,    0.0,    3.8,   0.00,   0.00, 1017.3,   74.1, -999.0
22-02-2022, 00:18:28,    246,    0.0,    3.8,   0.00,   0.00, 1017.3,   74.0, -999.0
22-02-2022, 00:18:38,    245,    0.1,    3.9,   0.00,   0.00, 1017.4,   74.4, -999.0
22-02-2022, 00:18:48,    244,    0.0,    3.8,   0.00,   0.00, 1017.3,   74.1, -999.0
22-02-2022, 00:18:58,    245,    0.0,    3.9,   0.00,   0.00, 1017.4,   74.2, -999.0
22-02-2022, 00:19:08,    203,    0.0,    3.9,   0.00,   0.00, 1017.3,   74.0, -999.0
22-02-2022, 00:19:17,    214,    0.5,    3.9,   0.00,   0.00, 1017.4,   74.2, -999.0
22-02-2022, 00:19:28,    215,    0.0,    3.9,   0.00,   0.00, 1017.4,   74.1, -999.0
22-02-2022, 00:19:38,    218,    0.2,    3.9,   0.00,   0.00, 1017.4,   74.4, -999.0
22-02-2022, 00:19:47,    232,    0.9,    3.9,   0.00,   0.00, 1017.5,   74.4, -999.0
22-02-2022, 00:19:58,    219,    1.7,    4.0,   0.00,   0.00, 1017.5,   74.4, -999.0
22-02-2022, 00:20:08,    219,    0.4,    4.0,   0.00,   0.00, 1017.4,   74.4, -999.0
22-02-2022, 00:20:17,    220,    0.0,    3.9,   0.00,   0.00, 1017.4,   74.2, -999.0
22-02-2022, 00:20:27,    219,    0.0,    3.9,   0.00,   0.00, 1017.4,   74.2, -999.0
22-02-2022, 00:20:38,    219,    0.0,    3.9,   0.00,   0.00, 1017.4,   74.1, -999.0
22-02-2022, 00:20:47,    241,    1.2,    4.0,   0.00,   0.00, 1017.5,   74.4, -999.0
22-02-2022, 00:20:57,    238,    0.2,    3.9,   0.00,   0.00, 1017.5,   74.4, -999.0
22-02-2022, 00:21:07,    238,    0.0,    3.9,   0.00,   0.00, 1017.4,   74.0, -999.0
22-02-2022, 00:21:17,    238,    0.1,    4.0,   0.00,   0.00, 1017.5,   74.2, -999.0
22-02-2022, 00:21:27,    238,    0.0,    3.9,   0.00,   0.00, 1017.4,   74.1, -999.0
22-02-2022, 00:21:37,    233,    0.0,    4.0,   0.00,   0.00, 1017.4,   74.0, -999.0
22-02-2022, 00:21:47,    219,    0.9,    4.0,   0.00,   0.00, 1017.5,   74.4, -999.0
22-02-2022, 00:21:57,    244,    0.7,    3.9,   0.00,   0.00, 1017.5,   74.5, -999.0
22-02-2022, 00:22:07,    229,    0.4,    4.0,   0.00,   0.00, 1017.5,   74.5, -999.0
22-02-2022, 00:22:17,    243,    1.0,    4.0,   0.00,   0.00, 1017.5,   74.4, -999.0
22-02-2022, 00:22:27,    286,    0.3,    4.0,   0.00,   0.00, 1017.5,   74.3, -999.0
22-02-2022, 00:22:37,    213,    0.1,    3.9,   0.00,   0.00, 1017.5,   74.1, -999.0
22-02-2022, 00:22:47,    226,    0.2,    4.0,   0.00,   0.00, 1017.5,   74.4, -999.0
22-02-2022, 00:22:56,    226,    0.4,    4.0,   0.00,   0.00, 1017.5,   74.3, -999.0
22-02-2022, 00:23:07,    226,    0.2,    4.0,   0.00,   0.00, 1017.5,   74.2, -999.0
22-02-2022, 00:23:17,    239,    1.1,    4.0,   0.00,   0.00, 1017.5,   74.5, -999.0
22-02-2022, 00:23:26,    246,    1.1,    4.0,   0.00,   0.00, 1017.5,   74.3, -999.0
22-02-2022, 00:23:36,    245,    0.1,    3.9,   0.00,   0.00, 1017.4,   74.3, -999.0
22-02-2022, 00:23:46,    179,    0.3,    4.0,   0.00,   0.00, 1017.4,   74.1, -999.0
22-02-2022, 00:23:56,    198,    0.4,    4.1,   0.00,   0.00, 1017.4,   74.4, -999.0
22-02-2022, 00:24:06,    198,    0.0,    4.1,   0.00,   0.00, 1017.3,   74.1, -999.0
22-02-2022, 00:24:16,    259,    1.1,    4.0,   0.00,   0.00, 1017.5,   74.5, -999.0
22-02-2022, 00:24:26,    259,    0.9,    4.0,   0.00,   0.00, 1017.4,   74.4, -999.0
22-02-2022, 00:24:36,    229,    1.0,    4.0,   0.00,   0.00, 1017.5,   74.6, -999.0
22-02-2022, 00:24:46,    245,    1.3,    4.0,   0.00,   0.00, 1017.5,   74.5, -999.0
22-02-2022, 00:24:56,    175,    0.3,    4.1,   0.00,   0.00, 1017.4,   74.4, -999.0
22-02-2022, 00:25:06,    175,    0.0,    3.9,   0.00,   0.00, 1017.3,   74.0, -999.0
22-02-2022, 00:25:16,    175,    0.0,    3.9,   0.00,   0.00, 1017.3,   74.0, -999.0
22-02-2022, 00:25:26,    175,    0.0,    3.9,   0.00,   0.00, 1017.3,   74.0, -999.0
22-02-2022, 00:25:36,    175,    0.0,    3.9,   0.00,   0.00, 1017.3,   74.1, -999.0
22-02-2022, 00:25:46,    175,    0.0,    3.9,   0.00,   0.00, 1017.3,   73.9, -999.0
22-02-2022, 00:25:56,    175,    0.0,    4.0,   0.00,   0.00, 1017.3,   74.1, -999.0
22-02-2022, 00:26:05,    176,    0.0,    3.9,   0.00,   0.00, 1017.3,   74.1, -999.0
22-02-2022, 00:26:16,    177,    0.0,    4.0,   0.00,   0.00, 1017.3,   74.2, -999.0
22-02-2022, 00:26:25,    179,    0.0,    4.0,   0.00,   0.00, 1017.3,   74.1, -999.0
22-02-2022, 00:26:35,    180,    0.0,    3.9,   0.00,   0.00, 1017.3,   74.2, -999.0
22-02-2022, 00:26:46,    186,    0.0,    3.9,   0.00,   0.00, 1017.3,   74.2, -999.0
22-02-2022, 00:26:55,    192,    0.0,    4.0,   0.00,   0.00, 1017.3,   74.1, -999.0
22-02-2022, 00:27:05,    223,    0.3,    3.9,   0.00,   0.00, 1017.4,   74.3, -999.0
22-02-2022, 00:27:15,    246,    0.2,    4.0,   0.00,   0.00, 1017.4,   74.3, -999.0
22-02-2022, 00:27:25,    245,    0.0,    4.0,   0.00,   0.00, 1017.3,   74.2, -999.0
22-02-2022, 00:27:35,    245,    0.0,    4.0,   0.00,   0.00, 1017.3,   74.2, -999.0
22-02-2022, 00:27:45,    245,    0.0,    4.0,   0.00,   0.00, 1017.3,   74.2, -999.0
22-02-2022, 00:27:55,    245,    0.0,    3.9,   0.00,   0.00, 1017.3,   74.1, -999.0
22-02-2022, 00:28:05,    245,    0.0,    4.0,   0.00,   0.00, 1017.3,   74.2, -999.0
22-02-2022, 00:28:25,    245,    0.0,    4.0,   0.00,   0.00, 1017.3,   74.1, -999.0
22-02-2022, 00:28:35,    245,    0.0,    4.0,   0.00,   0.00, 1017.3,   74.2, -999.0
22-02-2022, 00:28:45,    244,    0.0,    4.0,   0.00,   0.00, 1017.3,   74.1, -999.0
22-02-2022, 00:28:55,    245,    0.0,    4.0,   0.00,   0.00, 1017.3,   74.1, -999.0
22-02-2022, 00:29:04,    245,    0.0,    4.0,   0.00,   0.00, 1017.3,   74.1, -999.0
22-02-2022, 00:29:15,    245,    0.0,    4.0,   0.00,   0.00, 1017.3,   74.2, -999.0
22-02-2022, 00:29:25,    245,    0.0,    3.9,   0.00,   0.00, 1017.3,   74.1, -999.0
22-02-2022, 00:29:34,    245,    0.0,    3.9,   0.00,   0.00, 1017.3,   74.2, -999.0
22-02-2022, 00:29:44,    244,    0.0,    3.9,   0.00,   0.00, 1017.3,   74.1, -999.0
22-02-2022, 00:29:55,    244,    0.0,    4.0,   0.00,   0.00, 1017.3,   74.1, -999.0
22-02-2022, 00:30:04,    244,    0.0,    4.0,   0.00,   0.00, 1017.3,   74.2, -999.0
22-02-2022, 00:30:14,    244,    0.0,    4.0,   0.00,   0.00, 1017.3,   74.2, -999.0
22-02-2022, 00:30:24,    244,    0.0,    4.0,   0.00,   0.00, 1017.3,   74.3, -999.0
22-02-2022, 00:30:34,    197,    0.0,    4.0,   0.00,   0.00, 1017.3,   74.2, -999.0
22-02-2022, 00:30:44,    197,    0.0,    4.0,   0.00,   0.00, 1017.3,   74.3, -999.0
22-02-2022, 00:30:54,    198,    0.0,    3.9,   0.00,   0.00, 1017.3,   74.2, -999.0
22-02-2022, 00:31:04,    198,    0.0,    3.9,   0.00,   0.00, 1017.3,   74.2, -999.0
22-02-2022, 00:31:14,    198,    0.0,    3.9,   0.00,   0.00, 1017.3,   74.1, -999.0
22-02-2022, 00:31:24,    200,    0.0,    4.0,   0.00,   0.00, 1017.3,   74.2, -999.0
22-02-2022, 00:31:34,    217,    0.0,    4.0,   0.00,   0.00, 1017.3,   74.2, -999.0
22-02-2022, 00:31:44,    217,    0.0,    3.9,   0.00,   0.00, 1017.3,   74.4, -999.0
22-02-2022, 00:31:54,    218,    0.0,    3.9,   0.00,   0.00, 1017.3,   74.2, -999.0
22-02-2022, 00:32:04,    217,    0.0,    4.0,   0.00,   0.00, 1017.3,   74.3, -999.0
22-02-2022, 00:32:13,    218,    0.0,    4.0,   0.00,   0.00, 1017.3,   74.4, -999.0
22-02-2022, 00:32:24,    217,    0.0,    4.0,   0.00,   0.00, 1017.3,   74.2, -999.0
22-02-2022, 00:32:34,    233,    0.2,    4.0,   0.00,   0.00, 1017.3,   74.4, -999.0
22-02-2022, 00:32:43,    213,    0.0,    4.0,   0.00,   0.00, 1017.3,   74.5, -999.0
22-02-2022, 00:32:53,    210,    0.4,    4.1,   0.00,   0.00, 1017.4,   74.6, -999.0
22-02-2022, 00:33:03,    219,    0.5,    4.1,   0.00,   0.00, 1017.4,   74.8, -999.0
22-02-2022, 00:33:13,    219,    0.0,    4.0,   0.00,   0.00, 1017.3,   74.4, -999.0
22-02-2022, 00:33:23,    219,    0.0,    4.0,   0.00,   0.00, 1017.3,   74.2, -999.0
22-02-2022, 00:33:33,    221,    0.0,    3.9,   0.00,   0.00, 1017.3,   74.3, -999.0
22-02-2022, 00:33:43,    221,    0.0,    4.0,   0.00,   0.00, 1017.3,   74.4, -999.0
22-02-2022, 00:33:53,    221,    0.0,    4.0,   0.00,   0.00, 1017.3,   74.2, -999.0
22-02-2022, 00:34:03,    221,    0.0,    4.0,   0.00,   0.00, 1017.3,   74.2, -999.0
22-02-2022, 00:34:13,    221,    0.0,    4.0,   0.00,   0.00, 1017.3,   74.3, -999.0
22-02-2022, 00:34:23,    221,    0.0,    4.0,   0.00,   0.00, 1017.3,   74.4, -999.0
22-02-2022, 00:34:33,    221,    0.0,    4.0,   0.00,   0.00, 1017.3,   74.3, -999.0
22-02-2022, 00:34:43,    221,    0.0,    4.0,   0.00,   0.00, 1017.3,   74.2, -999.0
22-02-2022, 00:34:53,    221,    0.0,    4.0,   0.00,   0.00, 1017.3,   74.3, -999.0
22-02-2022, 00:35:03,    221,    0.0,    4.0,   0.00,   0.00, 1017.3,   74.3, -999.0
22-02-2022, 00:35:13,    221,    0.0,    4.0,   0.00,   0.00, 1017.3,   74.3, -999.0
22-02-2022, 00:35:22,    221,    0.0,    4.0,   0.00,   0.00, 1017.3,   74.4, -999.0
22-02-2022, 00:35:33,    221,    0.0,    4.0,   0.00,   0.00, 1017.3,   74.3, -999.0
22-02-2022, 00:35:43,    221,    0.0,    4.0,   0.00,   0.00, 1017.3,   74.3, -999.0
22-02-2022, 00:35:52,    221,    0.0,    4.0,   0.00,   0.00, 1017.3,   74.3, -999.0
22-02-2022, 00:36:02,    221,    0.0,    4.0,   0.00,   0.00, 1017.3,   74.3, -999.0
22-02-2022, 00:36:12,    221,    0.0,    4.0,   0.00,   0.00, 1017.3,   74.4, -999.0
22-02-2022, 00:36:22,    221,    0.0,    4.1,   0.00,   0.00, 1017.3,   74.2, -999.0
22-02-2022, 00:36:32,    221,    0.0,    4.0,   0.00,   0.00, 1017.3,   74.4, -999.0
22-02-2022, 00:36:42,    221,    0.0,    3.9,   0.00,   0.00, 1017.3,   74.2, -999.0
22-02-2022, 00:36:52,    221,    0.0,    4.0,   0.00,   0.00, 1017.3,   74.4, -999.0
22-02-2022, 00:37:02,    221,    0.0,    4.0,   0.00,   0.00, 1017.3,   74.3, -999.0
22-02-2022, 00:37:12,    221,    0.0,    4.0,   0.00,   0.00, 1017.3,   74.3, -999.0
22-02-2022, 00:37:22,    221,    0.0,    3.9,   0.00,   0.00, 1017.3,   74.4, -999.0
22-02-2022, 00:37:32,    220,    0.0,    3.9,   0.00,   0.00, 1017.3,   74.4, -999.0
22-02-2022, 00:37:42,    230,    0.1,    4.1,   0.00,   0.00, 1017.3,   74.5, -999.0
22-02-2022, 00:37:52,    230,    0.0,    4.0,   0.00,   0.00, 1017.3,   74.4, -999.0
22-02-2022, 00:38:02,    230,    0.0,    4.0,   0.00,   0.00, 1017.3,   74.4, -999.0
22-02-2022, 00:38:12,    230,    0.1,    4.1,   0.00,   0.00, 1017.4,   74.6, -999.0
22-02-2022, 00:38:22,    230,    0.0,    4.0,   0.00,   0.00, 1017.3,   74.4, -999.0
22-02-2022, 00:38:31,    230,    0.0,    4.0,   0.00,   0.00, 1017.3,   74.4, -999.0
22-02-2022, 00:38:42,    230,    0.0,    4.0,   0.00,   0.00, 1017.3,   74.5, -999.0
22-02-2022, 00:38:52,    230,    0.0,    4.0,   0.00,   0.00, 1017.3,   74.3, -999.0
22-02-2022, 00:39:01,    230,    0.0,    4.0,   0.00,   0.00, 1017.3,   74.4, -999.0
22-02-2022, 00:39:11,    228,    0.0,    4.0,   0.00,   0.00, 1017.3,   74.4, -999.0
22-02-2022, 00:39:21,    228,    0.0,    4.1,   0.00,   0.00, 1017.3,   74.4, -999.0
22-02-2022, 00:39:31,    228,    0.0,    4.1,   0.00,   0.00, 1017.3,   74.3, -999.0
22-02-2022, 00:39:41,    227,    0.0,    4.1,   0.00,   0.00, 1017.3,   74.6, -999.0
22-02-2022, 00:39:51,    227,    0.0,    4.1,   0.00,   0.00, 1017.3,   74.5, -999.0
22-02-2022, 00:40:01,    227,    0.0,    4.0,   0.00,   0.00, 1017.3,   74.5, -999.0
22-02-2022, 00:40:11,    228,    0.0,    4.0,   0.00,   0.00, 1017.3,   74.5, -999.0
22-02-2022, 00:40:21,    227,    0.0,    3.9,   0.00,   0.00, 1017.3,   74.5, -999.0
22-02-2022, 00:40:31,    227,    0.0,    4.0,   0.00,   0.00, 1017.3,   74.5, -999.0
22-02-2022, 00:40:41,    227,    0.0,    4.1,   0.00,   0.00, 1017.3,   74.5, -999.0
22-02-2022, 00:40:51,    227,    0.0,    4.0,   0.00,   0.00, 1017.3,   74.5, -999.0
22-02-2022, 00:41:01,    227,    0.0,    4.1,   0.00,   0.00, 1017.3,   74.4, -999.0
22-02-2022, 00:41:11,    225,    0.0,    4.1,   0.00,   0.00, 1017.3,   74.4, -999.0
22-02-2022, 00:41:21,    228,    0.2,    4.1,   0.00,   0.00, 1017.3,   74.6, -999.0
22-02-2022, 00:41:31,    228,    0.1,    4.2,   0.00,   0.00, 1017.3,   74.6, -999.0
22-02-2022, 00:41:40,    228,    0.1,    4.1,   0.00,   0.00, 1017.4,   74.6, -999.0
22-02-2022, 00:41:51,    228,    0.0,    4.1,   0.00,   0.00, 1017.4,   74.7, -999.0
22-02-2022, 00:42:00,    228,    0.0,    4.1,   0.00,   0.00, 1017.3,   74.4, -999.0
22-02-2022, 00:42:10,    228,    0.0,    3.9,   0.00,   0.00, 1017.3,   74.6, -999.0
22-02-2022, 00:42:21,    263,    0.0,    4.1,   0.00,   0.00, 1017.3,   74.6, -999.0
22-02-2022, 00:42:30,    262,    0.3,    4.1,   0.00,   0.00, 1017.4,   74.7, -999.0
22-02-2022, 00:42:40,    203,    0.4,    4.2,   0.00,   0.00, 1017.4,   75.0, -999.0
22-02-2022, 00:42:50,    201,    0.1,    4.2,   0.00,   0.00, 1017.3,   74.5, -999.0
22-02-2022, 00:43:00,    201,    0.0,    4.2,   0.00,   0.00, 1017.4,   74.8, -999.0
22-02-2022, 00:43:10,    203,    0.0,    4.1,   0.00,   0.00, 1017.3,   74.6, -999.0
22-02-2022, 00:43:20,    203,    0.0,    4.1,   0.00,   0.00, 1017.3,   74.6, -999.0
22-02-2022, 00:43:30,    203,    0.0,    4.1,   0.00,   0.00, 1017.3,   74.6, -999.0
22-02-2022, 00:43:40,    204,    0.0,    4.1,   0.00,   0.00, 1017.3,   74.6, -999.0
22-02-2022, 00:43:50,    204,    0.0,    4.1,   0.00,   0.00, 1017.3,   74.6, -999.0
22-02-2022, 00:44:00,    220,    0.6,    4.1,   0.00,   0.00, 1017.3,   74.7, -999.0
22-02-2022, 00:44:10,    219,    0.9,    4.2,   0.00,   0.00, 1017.4,   75.1, -999.0
22-02-2022, 00:44:20,    219,    0.0,    4.2,   0.00,   0.00, 1017.3,   74.8, -999.0
22-02-2022, 00:44:30,    219,    0.0,    4.2,   0.00,   0.00, 1017.3,   74.7, -999.0
22-02-2022, 00:44:39,    219,    0.0,    4.1,   0.00,   0.00, 1017.3,   74.7, -999.0
22-02-2022, 00:44:50,    218,    0.0,    4.2,   0.00,   0.00, 1017.3,   74.8, -999.0
22-02-2022, 00:45:00,    218,    0.0,    4.1,   0.00,   0.00, 1017.3,   75.1, -999.0
22-02-2022, 00:45:09,    218,    0.0,    4.1,   0.00,   0.00, 1017.3,   74.8, -999.0
22-02-2022, 00:45:19,    218,    0.0,    4.1,   0.00,   0.00, 1017.3,   74.7, -999.0
22-02-2022, 00:45:30,    218,    0.0,    4.1,   0.00,   0.00, 1017.3,   74.8, -999.0
22-02-2022, 00:45:39,    198,    0.0,    4.1,   0.00,   0.00, 1017.3,   74.8, -999.0
22-02-2022, 00:45:49,    190,    0.0,    4.2,   0.00,   0.00, 1017.3,   74.9, -999.0
22-02-2022, 00:45:59,    191,    0.1,    4.2,   0.00,   0.00, 1017.3,   74.9, -999.0
22-02-2022, 00:46:09,    191,    0.5,    4.2,   0.00,   0.00, 1017.4,   75.1, -999.0
22-02-2022, 00:46:19,    228,    0.3,    4.3,   0.00,   0.00, 1017.3,   75.1, -999.0
22-02-2022, 00:46:29,    248,    0.5,    4.3,   0.00,   0.00, 1017.4,   75.1, -999.0
22-02-2022, 00:46:39,    289,    0.0,    4.2,   0.00,   0.00, 1017.3,   75.0, -999.0
22-02-2022, 00:46:49,    286,    0.0,    4.1,   0.00,   0.00, 1017.3,   74.9, -999.0